User: anonymous   Login
Location: Pulvis Stellarum Observatory
(41.6962°N, 71.4263°W)
Time: 16:34:28
(UTC-05:00)
Language:

Cosmos 1758 - Orbit

View from above orbital plane
View from above orbital plane
View from above satellite
View from above satellite

Ground track
Ground track

The orbit data is extracted from the following two-line orbital elements,

1 16791U 86046A   14353.58190298  .00005347  00000-0  40483-3 0  2080
2 16791 082.4698 198.1790 0016647 308.2750 051.6977 15.02014854548841
Epoch (UTC): 19 December 2014 13:57:56
Eccentricity: 0.0016647
inclination: 82.4698°
perigee height: 549 km
apogee height: 572 km
right ascension of ascending node: 198.1790°
argument of perigee: 308.2750°
revolutions per day: 15.02014854
mean anomaly at epoch: 51.6977°
orbit number at epoch: 54884

The dashed part of the orbit path shows where the satellite is in the earth's shadow,  

DLR